[[{"header":{"parameterUnit":"m.s-1","parameterCategory":1,"la1":30.2991,"la2":30.254,"lo1":-89.0895,"lo2":-89.0444,"dy":0.0017,"dx":0.0017,"nx":28,"ny":28,"refTime":"2023-09-11T21:00:00:Z","depth":0,"parameterNumber":2,"parameterNumberName":"U-component_of_WINDS"},"data":[0,0,0,0,0,0,0,0,0,0,0,0,0,0,0,0,0,0,0,0,0,0,0,0,0,0,0,0,0,0,0,0,0,0,0,0,0,0,0,0,0,0,0,0,0,0,0,0,0,0,0,0,0,0,0,0,0,0,-0.3973,-0.3974,0,-0.3996,-0.3997,-0.3997,-0.396,-0.3959,-0.3958,-0.3957,-0.3983,-0.3985,-0.3986,0,0,0,0,0,0,0,0,0,0,0,0,0,-0.3899,-0.3901,-0.3973,-0.3974,-0.3974,-0.3996,-0.3997,-0.3997,-0.3961,-0.3959,-0.3958,-0.3956,-0.3982,-0.3984,-0.3987,0,0,0,0,0,0,0,0,0,0,0,0,0,-0.3928,-0.3902,-0.3973,-0.3958,-0.3957,-0.3996,-0.3997,-0.3997,-0.3961,-0.3959,-0.3957,-0.3955,-0.3981,-0.3984,-0.3987,-0.4042,0,0,-0.3995,-0.3997,0,0,0,0,0,0,0,0,-0.3926,-0.3931,-0.396,-0.3959,-0.3958,-0.3973,-0.398,-0.4012,-0.3961,-0.396,-0.3957,-0.3954,-0.3981,-0.3984,-0.3993,-0.4043,-0.4044,-0.3996,-0.3997,-0.3999,-0.3999,0,0,0,0,0,0,0,-0.3925,-0.393,-0.3982,-0.3961,-0.396,-0.3951,-0.3953,-0.3986,-0.3981,-0.396,-0.3957,-0.396,-0.398,-0.399,-0.3993,-0.4045,-0.3996,-0.3998,-0.4,-0.4001,-0.4142,-0.4144,0,0,0,0,0,0,-0.3924,-0.3928,-0.3982,-0.3983,-0.3937,-0.3954,-0.3956,-0.3971,-0.398,-0.398,-0.3962,-0.3958,-0.3986,-0.399,-0.3994,-0.4059,-0.3999,-0.4001,-0.4003,-0.414,-0.4142,-0.4144,0,0,0,0,0,0,-0.3923,-0.3929,-0.3981,-0.3955,-0.3961,-0.3957,-0.3974,-0.3972,-0.3981,-0.3982,-0.3981,-0.3972,-0.3985,-0.399,-0.403,-0.4059,-0.4003,-0.4005,-0.4137,-0.414,-0.4143,-0.419,0,0,0,0,0,0,-0.3921,-0.3929,-0.395,-0.3956,-0.3962,-0.4016,-0.3976,-0.3974,-0.3986,-0.3982,-0.3992,-0.3992,-0.3984,-0.4026,-0.4033,-0.4062,-0.4007,-0.4134,-0.4139,-0.4142,-0.4186,-0.4194,-0.4201,0,0,0,0,0,-0.3918,-0.3962,-0.3951,-0.3957,-0.3988,-0.4018,-0.4022,-0.4011,-0.3989,-0.401,-0.401,-0.3991,-0.4055,-0.4031,-0.4038,-0.4068,-0.4133,-0.4137,-0.4142,-0.4182,-0.4192,-0.4201,0,0,0,0,0,0,-0.3961,-0.3963,-0.395,-0.3998,-0.4008,-0.4012,-0.4038,-0.4023,-0.404,-0.4036,-0.4023,-0.4025,-0.4068,-0.4072,-0.4045,-0.4122,-0.409,-0.4096,-0.4118,-0.4128,-0.4135,-0.4134,-0.401,0,0,0,0,0,-0.3976,-0.3999,-0.4,-0.4042,-0.4048,-0.4042,-0.4055,-0.4045,-0.4056,-0.406,-0.4064,-0.4075,-0.4097,-0.4113,-0.4134,-0.4186,-0.4187,-0.421,-0.4218,-0.4224,-0.423,-0.4258,-0.4268,-0.4159,-0.4159,-0.4159,0,0,-0.4007,-0.4011,-0.4027,-0.4051,-0.4057,-0.4083,-0.4046,-0.4075,-0.4093,-0.4065,-0.4103,-0.4106,-0.4118,-0.4164,-0.4185,-0.4169,-0.426,-0.423,-0.4235,-0.4238,-0.4264,-0.4274,-0.4283,-0.4163,-0.4162,-0.4161,0,0,-0.4077,-0.4082,-0.4117,-0.4124,-0.4135,-0.4131,-0.4139,-0.4145,-0.4146,-0.4183,-0.4162,-0.4185,-0.4224,-0.4233,-0.4243,-0.4315,-0.4299,-0.4322,-0.4363,-0.439,-0.4399,-0.4406,-0.4432,-0.4442,-0.4328,-0.4328,-0.4328,0,-0.4114,-0.4151,-0.4137,-0.4167,-0.4178,-0.4152,-0.4188,-0.4196,-0.4213,-0.4222,-0.4203,-0.4251,-0.4257,-0.4305,-0.4323,-0.4332,-0.4341,-0.4321,-0.4399,-0.4406,-0.4413,-0.4437,-0.4447,-0.4331,-0.433,-0.433,-0.433,0,-0.4197,-0.4223,-0.425,-0.4266,-0.428,-0.4313,-0.4304,-0.432,-0.4309,-0.4307,-0.4346,-0.4352,-0.4373,-0.4384,-0.4374,-0.4431,-0.442,-0.4401,-0.4368,-0.4426,-0.4449,-0.4458,-0.4335,-0.4334,-0.4333,-0.4332,0,0,-0.4296,-0.4302,-0.4313,-0.4319,-0.4328,-0.4348,-0.438,-0.44,-0.4414,-0.4426,-0.4452,-0.4485,-0.4467,-0.4478,-0.4469,-0.4492,-0.4549,-0.447,-0.447,-0.4484,-0.4611,-0.4627,-0.4638,-0.4538,-0.454,-0.4541,-0.4611,0,-0.4365,-0.4418,-0.4406,-0.4459,-0.4483,-0.4458,-0.4485,-0.4494,-0.4493,-0.4513,-0.4512,-0.4535,-0.4509,-0.4515,-0.4537,-0.4537,-0.4574,-0.4532,-0.4563,-0.4564,-0.4561,-0.465,-0.4666,-0.4731,-0.4619,-0.4621,-0.4622,0,-0.4453,-0.4468,-0.4523,-0.4527,-0.4537,-0.4562,-0.4578,-0.4598,-0.4607,-0.4604,-0.4616,-0.4602,-0.4634,-0.46,-0.4644,-0.4615,-0.4627,-0.4629,-0.4631,-0.4634,-0.4597,-0.4655,-0.4752,-0.4762,-0.4636,-0.4635,-0.4634,0,-0.452,-0.4553,-0.459,-0.4597,-0.4603,-0.4621,-0.4624,-0.4632,-0.4644,-0.4659,-0.4667,-0.4686,-0.4697,-0.4712,-0.4703,-0.468,-0.4748,-0.4714,-0.4747,-0.4748,-0.4763,-0.4763,-0.4864,-0.477,-0.477,-0.477,-0.477,0,-0.4599,-0.4634,-0.462,-0.4643,-0.4681,-0.4667,-0.4705,-0.4706,-0.4712,-0.4735,-0.4715,-0.4737,-0.4725,-0.4746,-0.474,-0.4776,-0.4781,-0.478,-0.4778,-0.4782,-0.4783,-0.479,-0.4786,-0.4773,-0.4772,-0.4772,-0.4771,0,-0.468,-0.4673,-0.4711,-0.4713,-0.4715,-0.4743,-0.4745,-0.4766,-0.4763,-0.4792,-0.4798,-0.4793,-0.4817,-0.4809,-0.4836,-0.4831,-0.4878,-0.487,-0.4875,-0.4873,-0.4906,-0.4904,-0.5017,-0.5031,-0.4928,-0.4929,-0.493,0,-0.4732,-0.4758,-0.4762,-0.4775,-0.478,-0.4802,-0.4814,-0.4801,-0.4815,-0.4827,-0.4847,-0.4869,-0.4885,-0.4925,-0.4924,-0.4943,-0.4936,-0.4974,-0.4939,-0.4942,-0.4937,-0.4936,-0.4938,-0.4982,-0.4983,-0.4984,-0.4985,0,-0.4824,-0.4818,-0.4836,-0.4853,-0.4868,-0.488,-0.4891,-0.4904,-0.4891,-0.4908,-0.4931,-0.4944,-0.497,-0.4992,-0.5009,-0.5013,-0.4997,-0.4995,-0.5004,-0.5009,-0.5011,-0.501,-0.4894,-0.4993,-0.4992,-0.4992,-0.4991,-0.4991,-0.4892,-0.4913,-0.492,-0.494,-0.4947,-0.4957,-0.4977,-0.4976,-0.4995,-0.5014,-0.5005,-0.5032,-0.504,-0.5062,-0.5069,-0.509,-0.5076,-0.5088,-0.5092,-0.5095,-0.5099,-0.5007,-0.5093,-0.5093,-0.5093,-0.5093,-0.5092,0,-0.4983,-0.4985,-0.5004,-0.502,-0.5036,-0.5018,-0.5029,-0.5044,-0.5067,-0.5076,-0.5092,-0.5119,-0.514,-0.514,-0.516,-0.5177,-0.517,-0.5182,-0.5181,-0.5183,-0.5111,-0.5102,-0.5188,-0.5188,-0.5188,-0.5188,-0.5188,-0.5188,-0.5032,-0.5068,-0.5063,-0.5101,-0.5104,-0.5129,-0.5137,-0.5147,-0.5153,-0.5184,-0.52,-0.52,-0.5205,-0.5225,-0.5243,-0.5243,-0.5251,-0.5267,-0.5264,-0.5197,-0.5188,-0.5179,-0.517,-0.5269,-0.5269,-0.5333,-0.5334,-0.5334]},{"header":{"parameterUnit":"m.s-1","parameterCategory":1,"la1":30.2991,"la2":30.254,"lo1":-89.0895,"lo2":-89.0444,"dy":0.0017,"dx":0.0017,"nx":28,"ny":28,"refTime":"2023-09-11T21:00:00:Z","depth":0,"parameterNumber":3,"parameterNumberName":"V-component_of_WINDS"},"data":[0,0,0,0,0,0,0,0,0,0,0,0,0,0,0,0,0,0,0,0,0,0,0,0,0,0,0,0,0,0,0,0,0,0,0,0,0,0,0,0,0,0,0,0,0,0,0,0,0,0,0,0,0,0,0,0,0,0,-0.1318,-0.1318,0,-0.1391,-0.1391,-0.1392,-0.1402,-0.1401,-0.14,-0.14,-0.1476,-0.1479,-0.1482,0,0,0,0,0,0,0,0,0,0,0,0,0,-0.1189,-0.1192,-0.1317,-0.1318,-0.1319,-0.139,-0.1391,-0.1392,-0.1402,-0.1401,-0.14,-0.1399,-0.1476,-0.1479,-0.1482,0,0,0,0,0,0,0,0,0,0,0,0,0,-0.1252,-0.1193,-0.1317,-0.1333,-0.1335,-0.139,-0.1391,-0.1393,-0.1402,-0.1401,-0.14,-0.1399,-0.1474,-0.1478,-0.1482,-0.1528,0,0,-0.1495,-0.1496,0,0,0,0,0,0,0,0,-0.1248,-0.1257,-0.1329,-0.1332,-0.1334,-0.1386,-0.1374,-0.1438,-0.1402,-0.1377,-0.14,-0.1398,-0.1447,-0.1453,-0.147,-0.1532,-0.1535,-0.1495,-0.1498,-0.1499,-0.15,0,0,0,0,0,0,0,-0.1244,-0.1254,-0.1346,-0.133,-0.1333,-0.1337,-0.1345,-0.1387,-0.1417,-0.1379,-0.138,-0.1388,-0.1448,-0.1466,-0.1471,-0.1536,-0.1495,-0.1499,-0.1501,-0.1503,-0.1643,-0.1644,0,0,0,0,0,0,-0.1237,-0.125,-0.1344,-0.1349,-0.1288,-0.134,-0.1349,-0.137,-0.1417,-0.1423,-0.1389,-0.1388,-0.1459,-0.1467,-0.1474,-0.1533,-0.1499,-0.1503,-0.1505,-0.1642,-0.1643,-0.1645,0,0,0,0,0,0,-0.1234,-0.1245,-0.1341,-0.13,-0.1312,-0.1343,-0.1368,-0.1372,-0.139,-0.1424,-0.143,-0.1401,-0.1459,-0.1468,-0.1515,-0.1536,-0.1505,-0.1509,-0.164,-0.1642,-0.1644,-0.1651,0,0,0,0,0,0,-0.123,-0.1244,-0.1261,-0.13,-0.1314,-0.138,-0.1369,-0.1375,-0.1396,-0.1396,-0.1437,-0.1443,-0.1459,-0.1509,-0.1519,-0.1541,-0.1512,-0.1639,-0.1641,-0.1644,-0.1649,-0.1653,-0.1656,0,0,0,0,0,-0.1226,-0.1259,-0.1262,-0.1273,-0.1336,-0.1381,-0.139,-0.1407,-0.1398,-0.1416,-0.1439,-0.1441,-0.1532,-0.1514,-0.1525,-0.1549,-0.1637,-0.1641,-0.1643,-0.1647,-0.1652,-0.1656,0,0,0,0,0,0,-0.1222,-0.1265,-0.1268,-0.1315,-0.1344,-0.1383,-0.1406,-0.1411,-0.1444,-0.1443,-0.1463,-0.1472,-0.1519,-0.1538,-0.1518,-0.1597,-0.1584,-0.1589,-0.1583,-0.1588,-0.1591,-0.1587,-0.1515,0,0,0,0,0,-0.1227,-0.1259,-0.1295,-0.1334,-0.1348,-0.1375,-0.1395,-0.1406,-0.1437,-0.145,-0.1476,-0.1507,-0.1543,-0.1566,-0.16,-0.1651,-0.1662,-0.1673,-0.1676,-0.1679,-0.1684,-0.1715,-0.1721,-0.1655,-0.1655,-0.1654,0,0,-0.1237,-0.1265,-0.1284,-0.1334,-0.1358,-0.1393,-0.1385,-0.1421,-0.1448,-0.1456,-0.1502,-0.1522,-0.1559,-0.1608,-0.1631,-0.1626,-0.1705,-0.1683,-0.1685,-0.1689,-0.1719,-0.1725,-0.1731,-0.1657,-0.1656,-0.1656,0,0,-0.1274,-0.1297,-0.1333,-0.1357,-0.1394,-0.1412,-0.142,-0.1458,-0.1472,-0.1519,-0.1526,-0.1558,-0.1618,-0.1645,-0.1666,-0.1715,-0.172,-0.1725,-0.1745,-0.1775,-0.178,-0.1785,-0.1805,-0.1811,-0.173,-0.173,-0.173,0,-0.1283,-0.1334,-0.1351,-0.1388,-0.1411,-0.1419,-0.1457,-0.148,-0.1526,-0.1542,-0.1535,-0.1612,-0.1637,-0.1695,-0.1707,-0.1723,-0.1735,-0.1722,-0.1778,-0.1783,-0.1787,-0.1807,-0.1814,-0.1731,-0.173,-0.173,-0.173,0,-0.1344,-0.138,-0.1405,-0.145,-0.1475,-0.1512,-0.1535,-0.1559,-0.1568,-0.1587,-0.1636,-0.1666,-0.1708,-0.1722,-0.173,-0.1781,-0.1777,-0.1773,-0.1761,-0.1794,-0.1813,-0.182,-0.1731,-0.1731,-0.1731,-0.1731,0,0,-0.1382,-0.1436,-0.1445,-0.1467,-0.1508,-0.1537,-0.1575,-0.1616,-0.1637,-0.1669,-0.1703,-0.1754,-0.1752,-0.1776,-0.1788,-0.1814,-0.1854,-0.1808,-0.1809,-0.1817,-0.1915,-0.1919,-0.1927,-0.1856,-0.1858,-0.1859,-0.1912,0,-0.1426,-0.1493,-0.151,-0.1569,-0.1603,-0.1613,-0.1646,-0.1676,-0.1695,-0.1728,-0.1749,-0.1786,-0.1779,-0.1794,-0.182,-0.1843,-0.1874,-0.1839,-0.189,-0.1892,-0.1883,-0.1936,-0.194,-0.1989,-0.1919,-0.1921,-0.1922,0,-0.1486,-0.1519,-0.1581,-0.1621,-0.1636,-0.1666,-0.1706,-0.1736,-0.1771,-0.1783,-0.1811,-0.1821,-0.1863,-0.1847,-0.1906,-0.1882,-0.1904,-0.1919,-0.1921,-0.1928,-0.191,-0.1947,-0.2005,-0.2014,-0.1933,-0.1932,-0.1931,0,-0.151,-0.1571,-0.1616,-0.1634,-0.168,-0.1702,-0.1722,-0.1755,-0.178,-0.1815,-0.1831,-0.1871,-0.1893,-0.1924,-0.1944,-0.193,-0.2003,-0.1988,-0.2016,-0.2016,-0.2033,-0.2032,-0.2097,-0.2042,-0.2042,-0.2042,-0.2042,0,-0.1559,-0.1597,-0.1628,-0.1657,-0.1701,-0.172,-0.1763,-0.1784,-0.1814,-0.1848,-0.1857,-0.1889,-0.1913,-0.1949,-0.1965,-0.2013,-0.2022,-0.2035,-0.2039,-0.2035,-0.2034,-0.2052,-0.205,-0.2044,-0.2044,-0.2043,-0.2043,0,-0.1594,-0.1616,-0.1667,-0.1707,-0.1718,-0.1749,-0.1784,-0.1812,-0.1831,-0.1874,-0.1885,-0.1916,-0.1958,-0.1981,-0.2034,-0.2045,-0.21,-0.2101,-0.2088,-0.2091,-0.2118,-0.2117,-0.22,-0.2213,-0.2146,-0.2147,-0.2147,0,-0.1625,-0.1655,-0.1698,-0.1721,-0.1742,-0.1779,-0.1804,-0.1824,-0.185,-0.1893,-0.1918,-0.196,-0.1996,-0.2063,-0.2091,-0.2132,-0.2136,-0.2162,-0.2142,-0.2139,-0.214,-0.2139,-0.2143,-0.2166,-0.2167,-0.2167,-0.2168,0,-0.1678,-0.1688,-0.1723,-0.1763,-0.1793,-0.1826,-0.1858,-0.1876,-0.1902,-0.1931,-0.1975,-0.2002,-0.2057,-0.21,-0.2144,-0.2166,-0.2173,-0.2174,-0.2183,-0.2181,-0.2173,-0.2181,-0.2101,-0.2172,-0.2172,-0.2171,-0.2171,-0.2171,-0.1714,-0.1742,-0.1777,-0.1817,-0.1844,-0.1874,-0.1904,-0.1927,-0.1963,-0.201,-0.2019,-0.2066,-0.2102,-0.2161,-0.2185,-0.2222,-0.2217,-0.223,-0.2234,-0.2237,-0.224,-0.2165,-0.223,-0.223,-0.223,-0.223,-0.2229,0,-0.177,-0.1794,-0.183,-0.1875,-0.1907,-0.1909,-0.1945,-0.1972,-0.2013,-0.2046,-0.2081,-0.2132,-0.2175,-0.2206,-0.2249,-0.2274,-0.2278,-0.2285,-0.2285,-0.229,-0.224,-0.2229,-0.2281,-0.2281,-0.2281,-0.2281,-0.2281,-0.2281,-0.1803,-0.1852,-0.1866,-0.1928,-0.1952,-0.1997,-0.2018,-0.2047,-0.2074,-0.2131,-0.2166,-0.2185,-0.2218,-0.2265,-0.2305,-0.2313,-0.233,-0.2337,-0.2346,-0.2299,-0.2293,-0.2288,-0.2278,-0.2339,-0.234,-0.2393,-0.2393,-0.2394]}]]